TimeEST,TemperatureF,Dew PointF,Humidity,Sea Level PressureIn,VisibilityMPH,Wind Direction,Wind SpeedMPH,Gust SpeedMPH,PrecipitationIn,Events,Conditions,WindDirDegrees,DateUTC
12:35 AM,39.2,33.8,81,29.93,2.5,South,12.7,21.9,0.02,Rain,Rain,170,2013-02-11 05:35:00
12:46 AM,39.2,35.6,87,29.92,4.0,SSE,11.5,-,0.03,Rain,Light Rain,160,2013-02-11 05:46:00
12:53 AM,39.0,36.0,89,29.95,5.0,SSE,12.7,-,0.04,Rain,Light Rain,160,2013-02-11 05:53:00
1:05 AM,37.4,35.6,93,29.90,8.0,SSE,10.4,-,0.00,Rain,Light Rain,160,2013-02-11 06:05:00
1:17 AM,37.4,35.6,93,29.90,7.0,SSE,12.7,-,0.00,Rain,Light Rain,150,2013-02-11 06:17:00
1:53 AM,37.9,37.0,97,29.92,6.0,SSE,9.2,-,0.01,Rain,Light Rain,160,2013-02-11 06:53:00
2:05 AM,37.4,37.4,100,29.89,8.0,SSE,8.1,-,0.00,,Overcast,160,2013-02-11 07:05:00
2:17 AM,37.4,37.4,100,29.88,4.0,SSE,6.9,-,0.00,Rain,Light Rain,150,2013-02-11 07:17:00
2:53 AM,37.9,37.9,100,29.89,2.0,SE,5.8,-,0.01,,Overcast,140,2013-02-11 07:53:00
3:03 AM,37.4,37.4,100,29.85,4.0,SE,5.8,-,N/A,,Overcast,130,2013-02-11 08:03:00
3:53 AM,39.2,39.2,100,29.83,7.0,SSE,8.1,-,N/A,,Overcast,160,2013-02-11 08:53:00
4:53 AM,41.0,39.0,93,29.85,10.0,South,6.9,-,0.00,,Overcast,190,2013-02-11 09:53:00
5:53 AM,42.1,39.9,92,29.84,10.0,South,8.1,-,N/A,,Mostly Cloudy,180,2013-02-11 10:53:00
6:03 AM,42.8,39.2,87,29.81,10.0,South,8.1,-,N/A,,Mostly Cloudy,170,2013-02-11 11:03:00
6:53 AM,42.1,39.0,89,29.83,10.0,South,8.1,-,N/A,,Partly Cloudy,190,2013-02-11 11:53:00
7:53 AM,44.1,41.0,89,29.83,10.0,South,10.4,-,N/A,,Mostly Cloudy,180,2013-02-11 12:53:00
8:31 AM,46.4,42.8,87,29.79,10.0,South,9.2,-,N/A,,Mostly Cloudy,180,2013-02-11 13:31:00
8:53 AM,48.0,43.0,83,29.81,10.0,South,12.7,-,N/A,,Mostly Cloudy,190,2013-02-11 13:53:00
9:06 AM,48.2,42.8,82,29.78,10.0,South,12.7,-,N/A,,Scattered Clouds,190,2013-02-11 14:06:00
9:53 AM,53.1,45.0,74,29.77,10.0,South,16.1,24.2,N/A,,Clear,190,2013-02-11 14:53:00
10:53 AM,55.9,42.1,60,29.75,10.0,SSW,21.9,32.2,N/A,,Scattered Clouds,210,2013-02-11 15:53:00
11:53 AM,55.9,39.0,53,29.73,10.0,SW,19.6,31.1,N/A,,Partly Cloudy,230,2013-02-11 16:53:00
12:53 PM,59.0,34.0,39,29.69,10.0,SW,28.8,41.4,N/A,,Clear,230,2013-02-11 17:53:00
1:53 PM,60.1,30.9,33,29.67,10.0,WSW,26.5,34.5,N/A,,Partly Cloudy,250,2013-02-11 18:53:00
2:53 PM,59.0,28.9,32,29.67,10.0,WSW,26.5,34.5,N/A,,Clear,240,2013-02-11 19:53:00
3:53 PM,57.9,28.0,32,29.68,10.0,WSW,26.5,36.8,N/A,,Clear,240,2013-02-11 20:53:00
4:53 PM,53.1,30.0,41,29.72,10.0,West,21.9,34.5,N/A,,Mostly Cloudy,270,2013-02-11 21:53:00
5:53 PM,46.9,30.0,52,29.78,10.0,West,23.0,34.5,N/A,,Scattered Clouds,280,2013-02-11 22:53:00
6:53 PM,41.0,27.0,57,29.85,10.0,NW,15.0,24.2,N/A,,Scattered Clouds,320,2013-02-11 23:53:00
7:53 PM,39.0,26.1,60,29.87,10.0,West,12.7,18.4,N/A,,Clear,280,2013-02-12 00:53:00
8:53 PM,39.0,26.1,60,29.88,10.0,WNW,13.8,27.6,N/A,,Overcast,290,2013-02-12 01:53:00
9:53 PM,39.0,26.1,60,29.90,10.0,West,21.9,32.2,N/A,,Overcast,270,2013-02-12 02:53:00
10:53 PM,37.0,24.1,59,29.91,10.0,West,19.6,29.9,N/A,,Overcast,280,2013-02-12 03:53:00
11:53 PM,37.0,23.0,57,29.93,10.0,West,18.4,27.6,N/A,,Overcast,270,2013-02-12 04:53:00